weather.gov     
National Weather Service

Terminal Aerodrome Forecast
NWS Homepage
This page is being discontinued on March 12, 2014.
The same data is available at this site. Please update your bookmarks.
Thank you, and we apologize for the inconvenience.
Please send an email to SR-SRH.Webmaster@noaa.gov with any concerns.


Current Version
Previous Version:    01  02  03  04  05  06  07  08  09  10  11  12  13  14  15  16  17  18  19  20  21  22  23  24  25  
[Printable]
723
FTUS45 KREV 292300
TAFCXP
TAF
KCXP 292329Z 3000/3024 32011G18KT P6SM VCSH SCT110 BKN200
     FM300200 27010KT P6SM SCT120 BKN200
     FM300400 VRB04KT P6SM SCT140
     FM302000 32010G18KT P6SM VCTS SCT090 BKN120CB=


U.S. Dept. of Commerce
NOAA National Weather Service
1325 East West Highway
Silver Spring, MD 20910
E-mail: w-nws.webmaster@noaa.gov
Page last modified: May 16, 2007
NATIONAL WEATHER SERVICE: for Safety, for Work, for Fun - FOR LIFE